Probability
0 0 0 0 0 0 2 4 4 4 3 2 1 2 2 3 4 4 3 3 3 2 2 1 0 0 0 0 0 0 0 0 0 0 0 0 0 0 0 0 0 0 0
0 0 0 0 0 0 2 3 4 4 3 3 2 3 3 2 2 2 2 2 2 2 2 1 0 0 0 0 0 0 0 0 0 0 0 0 0 0 0 0 0 0 0
0 0 0 0 0 0 1 1 2 3 3 3 2 2 2 1 1 1 1 1 0 1 1 1 0 0 0 0 0 0 0 0 0 0 0 0 0 0 0 0 0 0 0
0 0 0 0 0 0 0 0 0 1 1 1 1 1 1 1 1 2 1 0 0 0 0 1 1 0 0 0 0 0 0 0 0 0 0 0 0 0 0 0 0 0 0
0 0 0 0 0 1 0 0 0 0 0 0 0 0 0 0 1 1 1 0 0 0 0 0 1 1 0 0 0 0 0 1 0 0 0 0 0 0 0 0 0 0 0
0 0 0 0 0 0 0 0 0 0 0 0 0 0 0 0 0 0 0 0 0 0 0 0 0 0 0 0 1 1 0 0 0 0 0 0 0 0 0 0 0 0 0
0 0 0 0 0 0 0 0 0 0 0 0 0 0 1 1 0 0 0 0 0 0 0 0 0 0 0 1 2 2 1 0 0 0 0 0 0 0 0 0 0 0 0
0 0 0 0 0 0 0 0 0 0 0 0 0 0 1 1 1 1 0 0 0 0 1 1 2 1 0 1 2 3 2 1 0 0 0 0 0 0 0 0 0 0 0
0 0 0 0 0 0 0 0 0 0 0 0 0 0 1 1 1 1 1 1 0 1 1 2 3 2 1 2 2 3 3 2 1 0 0 0 0 0 0 0 0 0 0
0 0 0 0 0 0 0 0 0 0 0 0 0 0 0 0 1 1 2 2 1 1 2 3 3 3 2 2 2 2 4 3 1 0 0 0 0 0 0 0 0 0 0
0 0 0 0 0 0 0 0 0 0 0 0 0 0 0 0 0 0 1 2 2 1 2 3 3 2 1 1 1 2 4 3 1 0 0 0 0 0 0 0 0 0 0
0 0 0 0 0 0 0 0 0 0 0 0 0 0 0 0 0 0 0 1 1 1 2 3 2 0 0 0 0 2 3 3 1 0 0 0 0 0 0 0 0 0 0
0 0 0 0 0 0 0 0 0 0 0 0 0 0 0 0 0 0 0 0 0 1 2 2 1 0 0 0 0 1 1 2 1 0 0 0 0 0 0 0 0 0 0
0 0 0 0 0 0 0 0 0 0 0 0 0 0 0 0 0 0 0 0 0 0 1 1 0 0 0 0 0 0 0 1 1 0 0 0 0 0 0 0 0 0 0
0 0 0 0 0 0 0 0 0 0 0 0 0 0 0 0 0 0 0 0 0 0 1 0 0 0 0 0 0 0 0 1 1 1 0 0 0 0 0 0 0 0 0
0 0 0 0 0 0 0 0 0 0 0 0 0 0 0 0 0 0 0 0 0 0 0 0 0 0 0 0 0 0 0 1 2 2 1 0 0 0 0 1 1 0 0
0 0 0 0 0 0 0 0 0 0 0 0 0 0 0 0 0 0 0 0 0 0 0 0 0 0 0 0 0 0 0 1 2 3 2 1 0 0 0 1 2 1 0
0 0 0 0 0 0 0 0 0 0 0 0 0 0 0 0 0 0 0 0 0 0 0 0 0 0 0 0 0 0 0 0 1 2 3 2 1 0 0 1 2 2 1
0 0 0 0 0 0 0 0 0 0 0 0 0 0 0 0 0 0 0 0 0 0 0 0 0 0 0 0 0 0 0 0 0 1 2 2 1 0 0 1 2 2 1
0 0 0 0 0 0 0 0 0 0 0 0 0 0 0 0 0 0 0 0 0 0 0 0 0 0 0 0 0 0 0 1 0 0 1 1 1 1 1 0 1 1 1
0 0 0 0 0 0 0 0 0 0 0 0 0 0 0 0 0 0 0 0 0 0 0 0 0 0 0 0 0 0 0 0 0 0 0 0 0 1 1 1 0 0 1
0 0 0 0 0 0 0 0 0 0 0 0 0 0 0 0 0 0 0 0 0 0 0 0 0 0 0 0 0 0 0 0 0 0 0 0 0 1 2 1 0 0 0
0 0 0 0 0 0 0 0 0 0 0 0 0 0 0 0 0 0 0 0 0 0 0 0 0 0 0 0 0 0 0 0 0 0 0 0 0 1 2 2 1 0 0
0 0 0 0 0 0 0 0 0 0 0 0 0 0 0 0 0 0 0 0 0 0 0 0 0 0 0 0 0 0 0 0 0 0 0 0 0 0 1 2 2 1 0
0 0 0 0 0 0 0 0 0 0 0 0 0 0 0 0 0 0 0 0 0 0 0 0 0 0 0 0 0 0 0 0 0 0 0 0 0 0 0 1 2 2 1
0 0 0 0 0 0 0 0 0 0 0 0 0 0 0 0 0 0 0 0 0 0 0 0 0 0 0 0 0 0 0 0 0 0 0 0 0 0 0 0 1 2 3
Wind_Speed
3 4 10 9 9 8 8 8 8 7 7 6 6 6 6 6 6 6 5 5 5 5 5 4 4 4 4 4 5 4 4 5 5 4 4 3 3 4 4 5 5 3 6
7 6 10 10 9 8 8 7 7 6 6 6 5 4 5 5 5 5 4 4 4 3 3 3 3 3 3 3 3 3 3 4 4 3 3 2 2 3 4 5 5 3 6
9 7 8 10 9 8 8 7 6 6 6 5 4 4 4 4 4 3 3 2 2 2 2 1 1 1 1 1 1 2 3 3 4 3 2 1 1 3 4 5 5 6 5
10 7 8 10 9 8 8 7 7 6 5 5 4 4 3 3 3 2 2 1 1 1 1 1 0 0 1 0 1 1 2 3 4 3 1 0 1 4 5 5 5 6 5
8 7 8 11 9 9 8 7 6 5 5 4 4 3 3 2 2 1 1 1 1 1 1 1 1 2 2 2 2 2 3 3 3 3 1 0 1 4 5 6 6 6 6
8 6 8 11 9 9 8 7 6 5 4 3 3 2 2 1 0 1 1 2 1 2 2 2 2 3 3 3 3 3 3 4 3 1 1 1 2 5 6 6 6 5 6
7 6 7 10 9 8 7 6 5 4 3 2 1 1 0 1 1 2 2 3 2 2 3 3 3 4 4 4 4 4 4 4 2 1 1 2 3 6 7 6 6 5 6
8 6 6 10 10 9 8 6 5 4 3 2 1 2 2 3 3 3 3 3 3 3 4 4 4 5 5 5 5 5 5 4 2 1 1 2 5 7 7 7 6 6 6
8 7 5 5 6 8 8 7 6 5 4 3 3 3 4 5 5 5 5 5 5 5 5 5 5 5 5 6 6 6 6 5 1 1 2 2 5 8 8 8 7 6 6
6 6 5 4 4 4 4 7 6 5 4 4 4 4 5 6 6 6 6 6 6 5 5 6 6 6 6 7 7 7 6 4 2 2 2 3 7 8 8 8 8 7 7
5 4 5 4 4 3 3 5 4 4 4 3 3 5 4 3 3 4 5 6 6 5 6 6 6 7 6 6 7 7 5 1 1 2 2 6 8 9 9 8 8 8 7
6 5 4 4 4 3 3 2 1 1 1 1 1 2 2 1 2 1 4 5 5 5 5 6 6 6 4 2 4 5 2 2 2 2 3 7 9 9 9 9 8 9 8
6 5 4 4 4 3 2 1 0 1 0 1 1 1 1 1 1 1 1 2 3 3 2 4 3 2 1 1 2 2 2 2 2 2 3 7 8 9 9 9 9 9 9
5 5 4 4 3 2 2 1 1 0 0 0 1 1 1 1 1 1 1 1 1 1 1 2 1 2 2 2 2 2 2 2 2 2 3 7 8 8 9 9 9 10 10
6 5 4 4 4 3 3 1 2 1 1 0 1 1 1 1 1 1 1 1 1 1 1 1 1 2 2 2 2 2 2 3 2 2 2 6 7 8 9 9 9 10 10
6 5 4 4 4 4 3 2 1 1 1 1 1 1 1 1 0 1 1 1 1 1 1 1 1 1 2 1 2 2 2 2 3 2 2 3 6 7 8 9 10 10 11
7 5 5 5 5 5 3 2 2 1 1 2 1 2 2 2 1 0 1 1 1 1 1 1 2 1 1 2 2 2 2 2 2 2 2 2 2 5 7 9 10 11 11
7 6 5 5 5 4 3 2 2 1 2 1 1 2 3 3 2 1 0 1 1 1 1 1 1 1 2 2 2 2 2 1 2 2 2 2 2 3 4 7 9 10 11
8 7 6 5 5 4 3 2 2 2 2 1 1 1 2 2 2 1 0 1 1 1 1 1 1 0 1 2 2 2 1 1 1 2 2 2 2 2 2 5 7 8 9
8 7 7 5 4 3 2 2 2 2 2 1 1 1 1 1 2 1 1 1 1 1 1 1 1 1 1 1 2 2 1 1 1 1 1 1 1 2 2 3 3 4 8
7 7 6 5 3 3 2 1 1 1 1 1 1 1 1 1 1 1 1 1 1 0 1 1 0 1 1 1 2 2 3 2 1 0 0 0 0 1 1 2 2 2 3
7 7 6 6 4 3 2 2 1 1 1 1 1 1 1 1 1 1 1 1 1 0 1 1 1 1 1 1 2 1 2 3 3 2 1 0 0 0 1 2 2 3 3
8 8 7 6 5 4 3 2 2 2 2 2 2 2 2 2 2 1 1 1 1 0 1 1 1 1 0 1 1 2 2 1 2 2 2 1 1 1 0 0 2 2 3
8 7 8 6 5 4 3 3 3 2 1 2 2 2 3 3 3 2 2 1 1 1 1 1 1 1 2 0 1 0 1 2 1 1 2 2 1 1 0 0 1 1 2
8 7 7 6 5 4 4 4 3 2 1 1 1 2 2 3 3 3 2 1 1 1 1 1 1 1 1 2 1 0 1 1 1 1 0 2 2 1 1 1 0 1 2
6 6 7 7 5 4 4 4 4 3 2 0 1 1 2 2 3 3 2 2 1 1 1 1 1 1 1 2 1 1 1 1 1 1 1 0 0 1 1 1 0 1 1
Wind_Direction
153 161 143 134 127 121 117 110 106 103 101 98 99 100 97 93 91 91 93 94 92 89 82 79 81 77 67 62 56 50 47 48 51 56 64 66 69 71 75 81 83 71 76
153 152 139 132 127 123 117 110 106 103 99 97 96 98 98 93 90 93 96 96 94 93 91 86 86 84 73 69 54 44 36 32 37 40 51 62 71 83 86 92 95 87 78
142 140 136 133 129 124 119 114 108 103 99 95 94 91 93 91 88 86 93 98 95 93 91 89 94 97 92 77 40 19 13 8 12 17 34 79 113 108 108 103 97 87 82
140 140 138 136 130 125 121 115 108 101 97 93 89 85 84 85 82 76 69 68 66 77 98 126 165 231 210 204 326 322 335 345 360 7 24 153 149 125 122 113 101 93 88
137 139 141 137 133 129 123 117 113 105 97 93 86 80 76 77 73 64 46 5 335 323 300 272 261 265 257 248 258 283 305 324 343 5 8 150 147 142 134 125 112 101 95
140 141 145 141 140 136 130 126 121 115 105 96 90 83 80 64 1 307 290 295 300 290 291 288 274 263 263 255 253 264 288 309 327 340 292 186 171 156 144 135 124 114 107
145 146 148 146 147 144 141 138 133 129 122 109 94 74 229 251 276 276 269 269 269 275 281 284 282 274 267 260 252 254 270 295 312 308 239 201 187 162 150 143 137 130 120
151 155 157 157 157 158 157 156 156 158 163 179 232 273 280 280 280 279 273 274 268 272 278 281 278 274 270 264 256 254 261 273 297 304 238 210 195 170 159 151 145 140 135
153 156 162 168 170 172 173 175 178 182 191 212 242 267 279 286 285 277 269 265 265 268 275 278 273 272 272 268 263 258 258 259 260 272 246 216 197 176 167 161 156 152 146
152 158 167 175 181 188 189 194 197 201 210 229 248 267 283 291 291 281 273 264 267 271 276 279 278 277 273 271 263 260 260 262 248 258 241 223 200 181 173 167 164 161 156
160 171 176 182 189 193 204 214 214 221 229 249 270 280 300 311 302 283 274 267 268 274 279 282 285 283 277 275 271 263 261 247 241 246 223 222 200 186 177 173 171 169 163
170 177 174 172 186 191 206 202 243 254 264 264 273 288 302 299 303 323 303 303 293 290 291 293 292 291 286 284 283 277 255 239 237 240 227 219 202 191 181 179 179 175 171
169 162 161 158 164 170 192 155 177 241 274 305 299 279 308 344 347 353 342 327 316 308 306 304 306 302 285 268 268 258 245 235 228 236 237 220 203 193 187 182 184 181 178
151 153 155 141 132 141 127 124 154 167 89 338 293 289 48 24 359 340 332 315 311 302 308 304 296 297 292 273 261 252 245 234 226 219 232 227 211 203 195 189 189 187 184
152 150 141 123 117 116 105 101 90 96 125 168 39 12 64 78 347 332 323 326 313 313 318 308 307 307 301 293 279 258 245 242 237 209 230 231 220 213 206 198 196 194 189
159 153 133 117 115 108 99 92 84 84 98 68 42 17 49 87 67 13 1 348 326 316 305 303 313 309 300 302 299 278 249 240 232 219 214 228 228 225 218 207 201 195 191
159 147 133 123 109 104 98 87 83 83 78 61 41 29 32 41 54 51 25 333 309 313 341 5 352 350 331 320 302 291 261 245 229 222 211 215 232 235 228 216 204 199 196
148 141 135 121 113 108 100 90 84 77 75 64 50 36 32 40 55 50 26 305 305 340 0 360 6 347 326 315 299 292 281 253 232 220 210 211 224 235 234 226 208 201 198
150 143 130 122 121 115 105 87 76 70 71 73 61 45 23 25 33 44 345 301 320 7 357 324 21 0 314 314 295 288 300 288 255 231 208 209 218 222 218 224 212 203 196
143 137 132 128 125 114 89 66 50 44 33 29 31 20 18 8 16 32 344 329 350 16 354 345 327 327 285 294 314 345 336 326 315 225 215 218 219 220 214 213 203 206 196
137 137 139 137 143 123 99 92 78 24 332 336 318 327 341 346 2 19 350 341 349 355 285 299 345 349 326 347 38 5 351 357 3 342 155 179 193 231 205 198 185 175 193
151 150 146 148 155 149 145 163 176 183 249 268 304 326 313 323 333 337 352 322 328 343 343 359 63 60 345 45 98 73 7 353 350 360 26 81 36 35 175 192 170 171 173
156 159 156 160 159 154 141 107 64 45 20 359 333 319 302 297 304 308 303 293 301 184 236 251 172 134 87 346 96 128 128 242 317 339 3 26 39 53 39 200 175 170 170
167 159 154 160 158 155 141 124 124 132 197 249 257 278 297 302 302 292 287 278 268 232 233 246 182 161 134 74 345 73 145 159 153 346 345 0 25 51 20 251 187 169 164
166 158 155 154 157 158 148 145 141 153 217 260 286 309 312 307 304 302 291 288 273 247 238 239 189 164 156 161 161 138 79 74 114 146 321 342 356 346 346 310 173 157 165
160 154 153 152 161 164 154 153 156 170 194 236 300 309 309 305 308 314 310 304 279 249 235 216 198 175 173 164 161 153 152 145 175 157 166 248 329 318 335 6 91 181 172